User: anonymous   Login
Location: Unspecified
(0.0000°N, 0.0000°E)
Time: 07:30:42
(UTC+00:00)
Language:

APRIZESAT 3 - Orbit

View from above orbital plane
View from above orbital plane
View from above satellite
View from above satellite

Ground track
Ground track

The orbit data is extracted from the following two-line orbital elements,

1 35686U 09041F   19023.64308278 +.00000029 +00000-0 +10096-4 0  9996
2 35686 098.2530 057.5802 0071696 271.0746 088.2255 14.87270036514154
Epoch (UTC): 23 January 2019 15:26:02
Eccentricity: 0.0071696
inclination: 98.2530°
perigee height: 556 km
apogee height: 656 km
right ascension of ascending node: 57.5802°
argument of perigee: 271.0746°
revolutions per day: 14.87270036
mean anomaly at epoch: 88.2255°
orbit number at epoch: 51415

The dashed part of the orbit path shows where the satellite is in the earth's shadow,  

DLR